Location: Altoona
(40.5167°N, 78.4000°W)
Time: 15:17:23
(UTC-04:00)

Cosmos 1241 Rocket - Pass Details

Date: 21 August 2017
Orbit: 938 x 1011 km, 65.8° (Epoch: 23 September)

Event Time Altitude Azimuth Distance (km) Brightness Sun altitude
Rises 22:25:38 0° 208° (SSW) 3,728 7.4 -24.5°
Reaches altitude 10° 22:28:13 10° 209° (SSW) 2,779 6.7 -24.8°
Maximum altitude 22:34:46 90° 121° (ESE) 1,008 4.4 -25.7°
Drops below altitude 10° 22:41:17 10° 31° (NNE) 2,760 7.0 -26.6°
Sets 22:43:51 0° 32° (NNE) 3,702 7.7 -26.9°
